owner,sensor,date,latitude,longitude,vertical_datum,direction_of_sea_water_velocity,sea_water_speed,upward_sea_water_velocity,qcFlag 
ADCP,ioos:station:wmo:42377:1,2013-04-02T13:05:00Z,27.2930,-90.9680,21.3,72.0,19.2,-9999.0,'11111222,11111222,99999999' 
ADCP,ioos:station:wmo:42377:1,2013-04-02T13:25:00Z,27.2930,-90.9680,21.3,78.0,15.8,-9999.0,'11111222,11111222,99999999' 
ADCP,ioos:station:wmo:42377:1,2013-04-02T13:45:00Z,27.2930,-90.9680,21.3,75.0,16.2,-9999.0,'11111222,11111222,99999999' 
ADCP,ioos:station:wmo:42377:1,2013-04-02T14:05:00Z,27.2930,-90.9680,21.3,76.0,16.4,-9999.0,'11111222,11111222,99999999' 
ADCP,ioos:station:wmo:42377:1,2013-04-02T14:25:00Z,27.2930,-90.9680,21.3,70.0,17.8,-9999.0,'11111222,11111222,99999999' 
ADCP,ioos:station:wmo:42377:1,2013-04-02T14:45:00Z,27.2930,-90.9680,21.3,73.0,19.5,-9999.0,'11111222,11111222,99999999' 
ADCP,ioos:station:wmo:42377:1,2013-04-02T15:05:00Z,27.2930,-90.9680,21.3,74.0,20.0,-9999.0,'11111222,11111222,99999999' 
ADCP,ioos:station:wmo:42377:1,2013-04-02T15:25:00Z,27.2930,-90.9680,21.3,76.0,20.6,-9999.0,'11111222,11111222,99999999' 
ADCP,ioos:station:wmo:42377:1,2013-04-02T15:45:00Z,27.2930,-90.9680,21.3,78.0,22.8,-9999.0,'11111222,11111222,99999999' 
ADCP,ioos:station:wmo:42377:1,2013-04-02T16:05:00Z,27.2930,-90.9680,21.3,81.0,22.0,-9999.0,'11111222,11111222,99999999' 
ADCP,ioos:station:wmo:42377:1,2013-04-02T16:25:00Z,27.2930,-90.9680,21.3,78.0,24.7,-9999.0,'11111222,11111222,99999999' 
ADCP,ioos:station:wmo:42377:1,2013-04-02T16:45:00Z,27.2930,-90.9680,21.3,83.0,24.9,-9999.0,'11111222,11111222,99999999' 
ADCP,ioos:station:wmo:42377:1,2013-04-02T17:05:00Z,27.2930,-90.9680,21.3,88.0,24.4,-9999.0,'11111222,11111222,99999999' 
ADCP,ioos:station:wmo:42377:1,2013-04-02T17:25:00Z,27.2930,-90.9680,21.3,90.0,23.7,-9999.0,'11111222,11111222,99999999' 
ADCP,ioos:station:wmo:42377:1,2013-04-02T17:45:00Z,27.2930,-90.9680,21.3,91.0,23.2,-9999.0,'11111222,11111222,99999999' 
ADCP,ioos:station:wmo:42377:1,2013-04-02T18:05:00Z,27.2930,-90.9680,21.3,94.0,21.9,-9999.0,'11111222,11111222,99999999' 
ADCP,ioos:station:wmo:42377:1,2013-04-02T18:25:00Z,27.2930,-90.9680,21.3,106.0,17.8,-9999.0,'11111222,11111222,99999999' 
ADCP,ioos:station:wmo:42377:1,2013-04-02T18:45:00Z,27.2930,-90.9680,21.3,110.0,17.1,-9999.0,'11111222,11111222,99999999' 
ADCP,ioos:station:wmo:42377:1,2013-04-02T19:05:00Z,27.2930,-90.9680,21.3,102.0,20.4,-9999.0,'11111222,11111222,99999999' 
ADCP,ioos:station:wmo:42377:1,2013-04-02T19:25:00Z,27.2930,-90.9680,21.3,98.0,19.9,-9999.0,'11111222,11111222,99999999' 
ADCP,ioos:station:wmo:42377:1,2013-04-02T19:45:00Z,27.2930,-90.9680,21.3,119.0,12.4,-9999.0,'11111222,11111222,99999999' 
ADCP,ioos:station:wmo:42377:1,2013-04-02T20:05:00Z,27.2930,-90.9680,21.3,116.0,14.2,-9999.0,'11111222,11111222,99999999' 
ADCP,ioos:station:wmo:42377:1,2013-04-02T20:25:00Z,27.2930,-90.9680,21.3,128.0,12.6,-9999.0,'11111222,11111222,99999999' 
ADCP,ioos:station:wmo:42377:1,2013-04-02T20:45:00Z,27.2930,-90.9680,21.3,131.0,13.1,-9999.0,'11111222,11111222,99999999' 
ADCP,ioos:station:wmo:42377:1,2013-04-02T21:05:00Z,27.2930,-90.9680,21.3,96.0,15.8,-9999.0,'11111222,11111222,99999999' 
ADCP,ioos:station:wmo:42377:1,2013-04-02T21:25:00Z,27.2930,-90.9680,21.3,99.0,15.8,-9999.0,'11111222,11111222,99999999' 
ADCP,ioos:station:wmo:42377:1,2013-04-02T21:45:00Z,27.2930,-90.9680,21.3,105.0,18.5,-9999.0,'11111222,11111222,99999999' 
ADCP,ioos:station:wmo:42377:1,2013-04-02T22:05:00Z,27.2930,-90.9680,21.3,100.0,15.5,-9999.0,'11111222,11111222,99999999' 
ADCP,ioos:station:wmo:42377:1,2013-04-02T22:25:00Z,27.2930,-90.9680,21.3,112.0,11.8,-9999.0,'11111222,11111222,99999999' 
ADCP,ioos:station:wmo:42377:1,2013-04-02T22:45:00Z,27.2930,-90.9680,21.3,101.0,10.7,-9999.0,'11111222,11111222,99999999' 
ADCP,ioos:station:wmo:42377:1,2013-04-02T23:05:00Z,27.2930,-90.9680,21.3,101.0,10.5,-9999.0,'11111222,11111222,99999999' 
ADCP,ioos:station:wmo:42377:1,2013-04-02T23:25:00Z,27.2930,-90.9680,21.3,121.0,12.8,-9999.0,'11111222,11111222,99999999' 
ADCP,ioos:station:wmo:42377:1,2013-04-02T23:45:00Z,27.2930,-90.9680,21.3,142.0,13.4,-9999.0,'11111222,11111222,99999999' 
ADCP,ioos:station:wmo:42377:1,2013-04-03T00:05:00Z,27.2930,-90.9680,21.3,114.0,9.3,-9999.0,'11133222,11111222,99999999' 
ADCP,ioos:station:wmo:42377:1,2013-04-03T00:25:00Z,27.2930,-90.9680,21.3,112.0,13.1,-9999.0,'11111222,11111222,99999999' 
ADCP,ioos:station:wmo:42377:1,2013-04-03T00:45:00Z,27.2930,-90.9680,21.3,110.0,13.9,-9999.0,'11111222,11111222,99999999' 
ADCP,ioos:station:wmo:42377:1,2013-04-03T01:05:00Z,27.2930,-90.9680,21.3,106.0,14.8,-9999.0,'11111222,11111222,99999999' 
ADCP,ioos:station:wmo:42377:1,2013-04-03T01:25:00Z,27.2930,-90.9680,21.3,103.0,14.8,-9999.0,'11111222,11111222,99999999' 
ADCP,ioos:station:wmo:42377:1,2013-04-03T01:45:00Z,27.2930,-90.9680,21.3,84.0,20.7,-9999.0,'11111222,11111222,99999999' 
ADCP,ioos:station:wmo:42377:1,2013-04-03T02:05:00Z,27.2930,-90.9680,21.3,80.0,19.1,-9999.0,'11111222,11111222,99999999' 
ADCP,ioos:station:wmo:42377:1,2013-04-03T02:25:00Z,27.2930,-90.9680,21.3,75.0,20.5,-9999.0,'11111222,11111222,99999999' 
ADCP,ioos:station:wmo:42377:1,2013-04-03T02:45:00Z,27.2930,-90.9680,21.3,73.0,19.9,-9999.0,'11111222,11111222,99999999' 
ADCP,ioos:station:wmo:42377:1,2013-04-03T03:05:00Z,27.2930,-90.9680,21.3,70.0,19.1,-9999.0,'11111222,11111222,99999999' 
ADCP,ioos:station:wmo:42377:1,2013-04-03T03:25:00Z,27.2930,-90.9680,21.3,68.0,18.7,-9999.0,'11111222,11111222,99999999' 
ADCP,ioos:station:wmo:42377:1,2013-04-03T03:45:00Z,27.2930,-90.9680,21.3,64.0,18.4,-9999.0,'11111222,11111222,99999999' 
ADCP,ioos:station:wmo:42377:1,2013-04-03T04:05:00Z,27.2930,-90.9680,21.3,61.0,17.1,-9999.0,'11111222,11111222,99999999' 
ADCP,ioos:station:wmo:42377:1,2013-04-03T04:25:00Z,27.2930,-90.9680,21.3,64.0,20.4,-9999.0,'11111222,11111222,99999999' 
ADCP,ioos:station:wmo:42377:1,2013-04-03T04:45:00Z,27.2930,-90.9680,21.3,63.0,21.0,-9999.0,'11111222,11111222,99999999' 
ADCP,ioos:station:wmo:42377:1,2013-04-03T05:05:00Z,27.2930,-90.9680,21.3,62.0,20.6,-9999.0,'11111222,11111222,99999999' 
ADCP,ioos:station:wmo:42377:1,2013-04-03T05:25:00Z,27.2930,-90.9680,21.3,62.0,22.3,-9999.0,'11111222,11111222,99999999' 
ADCP,ioos:station:wmo:42377:1,2013-04-03T05:45:00Z,27.2930,-90.9680,21.3,63.0,22.0,-9999.0,'11111222,11111222,99999999' 
ADCP,ioos:station:wmo:42377:1,2013-04-03T06:05:00Z,27.2930,-90.9680,21.3,60.0,22.6,-9999.0,'11111222,11111222,99999999' 
ADCP,ioos:station:wmo:42377:1,2013-04-03T06:25:00Z,27.2930,-90.9680,21.3,60.0,23.5,-9999.0,'11111222,11111222,99999999' 
ADCP,ioos:station:wmo:42377:1,2013-04-03T06:45:00Z,27.2930,-90.9680,21.3,61.0,23.2,-9999.0,'11111222,11111222,99999999' 
ADCP,ioos:station:wmo:42377:1,2013-04-03T07:05:00Z,27.2930,-90.9680,21.3,58.0,24.3,-9999.0,'11111222,11111222,99999999' 
ADCP,ioos:station:wmo:42377:1,2013-04-03T07:25:00Z,27.2930,-90.9680,21.3,57.0,23.3,-9999.0,'11111222,11111222,99999999' 
ADCP,ioos:station:wmo:42377:1,2013-04-03T07:45:00Z,27.2930,-90.9680,21.3,57.0,24.8,-9999.0,'11111222,11111222,99999999' 
ADCP,ioos:station:wmo:42377:1,2013-04-03T08:05:00Z,27.2930,-90.9680,21.3,59.0,24.7,-9999.0,'11111222,11111222,99999999' 
ADCP,ioos:station:wmo:42377:1,2013-04-03T08:25:00Z,27.2930,-90.9680,21.3,58.0,24.3,-9999.0,'11111222,11111222,99999999' 
ADCP,ioos:station:wmo:42377:1,2013-04-03T08:45:00Z,27.2930,-90.9680,21.3,62.0,22.7,-9999.0,'11111222,11111222,99999999' 
ADCP,ioos:station:wmo:42377:1,2013-04-03T09:05:00Z,27.2930,-90.9680,21.3,63.0,20.8,-9999.0,'11111222,11111222,99999999' 
ADCP,ioos:station:wmo:42377:1,2013-04-03T09:25:00Z,27.2930,-90.9680,21.3,64.0,20.2,-9999.0,'11111222,11111222,99999999' 
ADCP,ioos:station:wmo:42377:1,2013-04-03T09:45:00Z,27.2930,-90.9680,21.3,67.0,20.7,-9999.0,'11111222,11111222,99999999' 
ADCP,ioos:station:wmo:42377:1,2013-04-03T10:05:00Z,27.2930,-90.9680,21.3,68.0,23.3,-9999.0,'11111222,11111222,99999999' 
ADCP,ioos:station:wmo:42377:1,2013-04-03T10:25:00Z,27.2930,-90.9680,21.3,67.0,23.2,-9999.0,'11111222,11111222,99999999' 
ADCP,ioos:station:wmo:42377:1,2013-04-03T10:45:00Z,27.2930,-90.9680,21.3,69.0,23.9,-9999.0,'11111222,11111222,99999999' 
ADCP,ioos:station:wmo:42377:1,2013-04-03T11:05:00Z,27.2930,-90.9680,21.3,67.0,30.0,-9999.0,'11111222,11111222,99999999' 
ADCP,ioos:station:wmo:42377:1,2013-04-03T11:25:00Z,27.2930,-90.9680,21.3,64.0,28.6,-9999.0,'11111222,11111222,99999999' 
ADCP,ioos:station:wmo:42377:1,2013-04-03T11:45:00Z,27.2930,-90.9680,21.3,73.0,25.7,-9999.0,'11111222,11111222,99999999' 
ADCP,ioos:station:wmo:42377:1,2013-04-03T12:05:00Z,27.2930,-90.9680,21.3,68.0,25.4,-9999.0,'11111222,11111222,99999999' 
ADCP,ioos:station:wmo:42377:1,2013-04-03T12:25:00Z,27.2930,-90.9680,21.3,62.0,31.0,-9999.0,'11111222,11111222,99999999' 
ADCP,ioos:station:wmo:42377:1,2013-04-03T12:45:00Z,27.2930,-90.9680,21.3,66.0,28.0,-9999.0,'11111222,11111222,99999999' 
ADCP,ioos:station:wmo:42377:1,2013-04-03T13:05:00Z,27.2930,-90.9680,21.3,70.0,30.0,-9999.0,'11111222,11111222,99999999' 
ADCP,ioos:station:wmo:42377:1,2013-04-03T13:25:00Z,27.2930,-90.9680,21.3,74.0,29.9,-9999.0,'11111222,11111222,99999999' 
ADCP,ioos:station:wmo:42377:1,2013-04-03T13:45:00Z,27.2930,-90.9680,21.3,80.0,28.9,-9999.0,'11111222,11111222,99999999' 
ADCP,ioos:station:wmo:42377:1,2013-04-03T14:05:00Z,27.2930,-90.9680,21.3,91.0,29.4,-9999.0,'11111222,11111222,99999999' 
ADCP,ioos:station:wmo:42377:1,2013-04-03T14:25:00Z,27.2930,-90.9680,21.3,103.0,23.8,-9999.0,'11111222,11111222,99999999' 
ADCP,ioos:station:wmo:42377:1,2013-04-03T14:45:00Z,27.2930,-90.9680,21.3,133.0,14.4,-9999.0,'11111222,11111222,99999999' 
ADCP,ioos:station:wmo:42377:1,2013-04-03T15:05:00Z,27.2930,-90.9680,21.3,177.0,16.5,-9999.0,'11111222,11111222,99999999' 
ADCP,ioos:station:wmo:42377:1,2013-04-03T15:25:00Z,27.2930,-90.9680,21.3,209.0,21.0,-9999.0,'11111222,11111222,99999999' 
ADCP,ioos:station:wmo:42377:1,2013-04-03T15:45:00Z,27.2930,-90.9680,21.3,208.0,20.3,-9999.0,'11111222,11111222,99999999' 
ADCP,ioos:station:wmo:42377:1,2013-04-03T16:05:00Z,27.2930,-90.9680,21.3,217.0,21.4,-9999.0,'11111222,11111222,99999999' 
ADCP,ioos:station:wmo:42377:1,2013-04-03T16:25:00Z,27.2930,-90.9680,21.3,225.0,22.1,-9999.0,'11111222,11111222,99999999' 
ADCP,ioos:station:wmo:42377:1,2013-04-03T16:45:00Z,27.2930,-90.9680,21.3,229.0,20.5,-9999.0,'11111222,11111222,99999999' 
ADCP,ioos:station:wmo:42377:1,2013-04-03T17:05:00Z,27.2930,-90.9680,21.3,233.0,23.3,-9999.0,'11111222,11111222,99999999' 
ADCP,ioos:station:wmo:42377:1,2013-04-03T17:25:00Z,27.2930,-90.9680,21.3,230.0,21.5,-9999.0,'11111222,11111222,99999999' 
ADCP,ioos:station:wmo:42377:1,2013-04-03T17:45:00Z,27.2930,-90.9680,21.3,229.0,18.4,-9999.0,'11111222,11111222,99999999' 
ADCP,ioos:station:wmo:42377:1,2013-04-03T18:05:00Z,27.2930,-90.9680,21.3,203.0,16.4,-9999.0,'11111222,11111222,99999999' 
ADCP,ioos:station:wmo:42377:1,2013-04-03T18:25:00Z,27.2930,-90.9680,21.3,178.0,21.5,-9999.0,'11111222,11111222,99999999' 
ADCP,ioos:station:wmo:42377:1,2013-04-03T18:45:00Z,27.2930,-90.9680,21.3,186.0,20.1,-9999.0,'11111222,11111222,99999999' 
ADCP,ioos:station:wmo:42377:1,2013-04-03T19:05:00Z,27.2930,-90.9680,21.3,141.0,21.5,-9999.0,'11111222,11111222,99999999' 
ADCP,ioos:station:wmo:42377:1,2013-04-03T19:25:00Z,27.2930,-90.9680,21.3,104.0,24.8,-9999.0,'11111222,11111222,99999999' 
ADCP,ioos:station:wmo:42377:1,2013-04-03T19:45:00Z,27.2930,-90.9680,21.3,81.0,23.0,-9999.0,'11111222,11111222,99999999' 
ADCP,ioos:station:wmo:42377:1,2013-04-03T20:05:00Z,27.2930,-90.9680,21.3,94.0,17.4,-9999.0,'11111222,11111222,99999999' 
ADCP,ioos:station:wmo:42377:1,2013-04-03T20:25:00Z,27.2930,-90.9680,21.3,91.0,15.5,-9999.0,'11111222,11111222,99999999' 
ADCP,ioos:station:wmo:42377:1,2013-04-03T20:45:00Z,27.2930,-90.9680,21.3,86.0,20.0,-9999.0,'11111222,11111222,99999999' 
ADCP,ioos:station:wmo:42377:1,2013-04-03T21:05:00Z,27.2930,-90.9680,21.3,89.0,22.2,-9999.0,'11111222,11111222,99999999' 
ADCP,ioos:station:wmo:42377:1,2013-04-03T21:25:00Z,27.2930,-90.9680,21.3,92.0,27.7,-9999.0,'11111222,11111222,99999999' 
ADCP,ioos:station:wmo:42377:1,2013-04-03T21:45:00Z,27.2930,-90.9680,21.3,92.0,28.5,-9999.0,'11111222,11111222,99999999' 
ADCP,ioos:station:wmo:42377:1,2013-04-03T22:05:00Z,27.2930,-90.9680,21.3,90.0,29.9,-9999.0,'11111222,11111222,99999999' 
ADCP,ioos:station:wmo:42377:1,2013-04-03T22:25:00Z,27.2930,-90.9680,21.3,92.0,28.0,-9999.0,'11111222,11111222,99999999' 
ADCP,ioos:station:wmo:42377:1,2013-04-03T22:45:00Z,27.2930,-90.9680,21.3,91.0,30.1,-9999.0,'11111222,11111222,99999999' 
ADCP,ioos:station:wmo:42377:1,2013-04-03T23:05:00Z,27.2930,-90.9680,21.3,103.0,23.3,-9999.0,'11111222,11111222,99999999' 
ADCP,ioos:station:wmo:42377:1,2013-04-03T23:25:00Z,27.2930,-90.9680,21.3,110.0,19.8,-9999.0,'11111222,11111222,99999999' 
ADCP,ioos:station:wmo:42377:1,2013-04-03T23:45:00Z,27.2930,-90.9680,21.3,106.0,20.1,-9999.0,'11111222,11111222,99999999' 
ADCP,ioos:station:wmo:42377:1,2013-04-04T00:05:00Z,27.2930,-90.9680,21.3,127.0,22.0,-9999.0,'11111222,11111222,99999999' 
ADCP,ioos:station:wmo:42377:1,2013-04-04T00:25:00Z,27.2930,-90.9680,21.3,107.0,20.7,-9999.0,'11111222,11111222,99999999' 
ADCP,ioos:station:wmo:42377:1,2013-04-04T00:45:00Z,27.2930,-90.9680,21.3,112.0,17.4,-9999.0,'11111222,11111222,99999999' 
ADCP,ioos:station:wmo:42377:1,2013-04-04T01:05:00Z,27.2930,-90.9680,21.3,124.0,10.5,-9999.0,'11111222,11111222,99999999' 
ADCP,ioos:station:wmo:42377:1,2013-04-04T01:25:00Z,27.2930,-90.9680,21.3,150.0,8.7,-9999.0,'11133222,11111222,99999999' 
ADCP,ioos:station:wmo:42377:1,2013-04-04T01:45:00Z,27.2930,-90.9680,21.3,141.0,7.3,-9999.0,'11133222,11111222,99999999' 
ADCP,ioos:station:wmo:42377:1,2013-04-04T02:05:00Z,27.2930,-90.9680,21.3,143.0,4.5,-9999.0,'11133222,11111222,99999999' 
ADCP,ioos:station:wmo:42377:1,2013-04-04T02:25:00Z,27.2930,-90.9680,21.3,86.0,6.3,-9999.0,'11133222,11111222,99999999' 
ADCP,ioos:station:wmo:42377:1,2013-04-04T02:45:00Z,27.2930,-90.9680,21.3,71.0,4.6,-9999.0,'11133222,11111222,99999999' 
ADCP,ioos:station:wmo:42377:1,2013-04-04T03:05:00Z,27.2930,-90.9680,21.3,346.0,2.1,-9999.0,'11133222,11111222,99999999' 
ADCP,ioos:station:wmo:42377:1,2013-04-04T03:25:00Z,27.2930,-90.9680,21.3,264.0,4.6,-9999.0,'11133222,11111222,99999999' 
ADCP,ioos:station:wmo:42377:1,2013-04-04T03:45:00Z,27.2930,-90.9680,21.3,92.0,3.7,-9999.0,'11133222,11111222,99999999' 
ADCP,ioos:station:wmo:42377:1,2013-04-04T04:05:00Z,27.2930,-90.9680,21.3,81.0,5.4,-9999.0,'11133222,11111222,99999999' 
ADCP,ioos:station:wmo:42377:1,2013-04-04T04:25:00Z,27.2930,-90.9680,21.3,53.0,5.9,-9999.0,'11133222,11111222,99999999' 
ADCP,ioos:station:wmo:42377:1,2013-04-04T04:45:00Z,27.2930,-90.9680,21.3,34.0,6.9,-9999.0,'11133222,11111222,99999999' 
ADCP,ioos:station:wmo:42377:1,2013-04-04T05:05:00Z,27.2930,-90.9680,21.3,40.0,6.8,-9999.0,'11133222,11111222,99999999' 
ADCP,ioos:station:wmo:42377:1,2013-04-04T05:25:00Z,27.2930,-90.9680,21.3,46.0,11.6,-9999.0,'11111222,11111222,99999999' 
ADCP,ioos:station:wmo:42377:1,2013-04-04T05:45:00Z,27.2930,-90.9680,21.3,42.0,13.2,-9999.0,'11111222,11111222,99999999' 
ADCP,ioos:station:wmo:42377:1,2013-04-04T06:05:00Z,27.2930,-90.9680,21.3,44.0,12.9,-9999.0,'11111222,11111222,99999999' 
ADCP,ioos:station:wmo:42377:1,2013-04-04T06:25:00Z,27.2930,-90.9680,21.3,47.0,12.0,-9999.0,'11111222,11111222,99999999' 
ADCP,ioos:station:wmo:42377:1,2013-04-04T06:45:00Z,27.2930,-90.9680,21.3,45.0,12.9,-9999.0,'11111222,11111222,99999999' 
ADCP,ioos:station:wmo:42377:1,2013-04-04T07:05:00Z,27.2930,-90.9680,21.3,47.0,17.3,-9999.0,'11111222,11111222,99999999' 
ADCP,ioos:station:wmo:42377:1,2013-04-04T07:25:00Z,27.2930,-90.9680,21.3,50.0,16.6,-9999.0,'11111222,11111222,99999999' 
ADCP,ioos:station:wmo:42377:1,2013-04-04T07:45:00Z,27.2930,-90.9680,21.3,52.0,13.5,-9999.0,'11111222,11111222,99999999' 
ADCP,ioos:station:wmo:42377:1,2013-04-04T08:05:00Z,27.2930,-90.9680,21.3,59.0,15.0,-9999.0,'11111222,11111222,99999999' 
ADCP,ioos:station:wmo:42377:1,2013-04-04T08:25:00Z,27.2930,-90.9680,21.3,66.0,14.5,-9999.0,'11111222,11111222,99999999' 
ADCP,ioos:station:wmo:42377:1,2013-04-04T08:45:00Z,27.2930,-90.9680,21.3,64.0,14.0,-9999.0,'11111222,11111222,99999999' 
ADCP,ioos:station:wmo:42377:1,2013-04-04T09:05:00Z,27.2930,-90.9680,21.3,66.0,12.3,-9999.0,'11111222,11111222,99999999' 
ADCP,ioos:station:wmo:42377:1,2013-04-04T09:25:00Z,27.2930,-90.9680,21.3,75.0,15.5,-9999.0,'11111222,11111222,99999999' 
ADCP,ioos:station:wmo:42377:1,2013-04-04T09:45:00Z,27.2930,-90.9680,21.3,83.0,15.0,-9999.0,'11111222,11111222,99999999' 
ADCP,ioos:station:wmo:42377:1,2013-04-04T10:05:00Z,27.2930,-90.9680,21.3,81.0,16.3,-9999.0,'11111222,11111222,99999999' 
ADCP,ioos:station:wmo:42377:1,2013-04-04T10:25:00Z,27.2930,-90.9680,21.3,80.0,16.1,-9999.0,'11111222,11111222,99999999' 
ADCP,ioos:station:wmo:42377:1,2013-04-04T10:45:00Z,27.2930,-90.9680,21.3,75.0,16.0,-9999.0,'11111222,11111222,99999999' 
ADCP,ioos:station:wmo:42377:1,2013-04-04T11:05:00Z,27.2930,-90.9680,21.3,72.0,22.3,-9999.0,'11111222,11111222,99999999' 
ADCP,ioos:station:wmo:42377:1,2013-04-04T11:25:00Z,27.2930,-90.9680,21.3,82.0,16.0,-9999.0,'11111222,11111222,99999999' 
ADCP,ioos:station:wmo:42377:1,2013-04-04T11:45:00Z,27.2930,-90.9680,21.3,93.0,13.4,-9999.0,'11111222,11111222,99999999' 
ADCP,ioos:station:wmo:42377:1,2013-04-04T12:05:00Z,27.2930,-90.9680,21.3,87.0,15.5,-9999.0,'11111222,11111222,99999999' 
ADCP,ioos:station:wmo:42377:1,2013-04-04T12:25:00Z,27.2930,-90.9680,21.3,88.0,19.2,-9999.0,'11111222,11111222,99999999' 
ADCP,ioos:station:wmo:42377:1,2013-04-04T12:45:00Z,27.2930,-90.9680,21.3,94.0,20.0,-9999.0,'11111222,11111222,99999999' 
ADCP,ioos:station:wmo:42377:1,2013-04-04T13:05:00Z,27.2930,-90.9680,21.3,104.0,18.5,-9999.0,'11111222,11111222,99999999' 
ADCP,ioos:station:wmo:42377:1,2013-04-04T13:25:00Z,27.2930,-90.9680,21.3,104.0,15.8,-9999.0,'11111222,11111222,99999999' 
ADCP,ioos:station:wmo:42377:1,2013-04-04T13:45:00Z,27.2930,-90.9680,21.3,117.0,12.9,-9999.0,'11111222,11111222,99999999' 
ADCP,ioos:station:wmo:42377:1,2013-04-04T14:05:00Z,27.2930,-90.9680,21.3,119.0,13.0,-9999.0,'11111222,11111222,99999999' 
ADCP,ioos:station:wmo:42377:1,2013-04-04T14:25:00Z,27.2930,-90.9680,21.3,130.0,12.5,-9999.0,'11111222,11111222,99999999' 
ADCP,ioos:station:wmo:42377:1,2013-04-04T14:45:00Z,27.2930,-90.9680,21.3,143.0,13.1,-9999.0,'11111222,11111222,99999999' 
ADCP,ioos:station:wmo:42377:1,2013-04-04T15:05:00Z,27.2930,-90.9680,21.3,140.0,15.2,-9999.0,'11111222,11111222,99999999' 
ADCP,ioos:station:wmo:42377:1,2013-04-04T15:25:00Z,27.2930,-90.9680,21.3,147.0,13.0,-9999.0,'11111222,11111222,99999999' 
ADCP,ioos:station:wmo:42377:1,2013-04-04T15:45:00Z,27.2930,-90.9680,21.3,163.0,10.8,-9999.0,'11111222,11111222,99999999' 
ADCP,ioos:station:wmo:42377:1,2013-04-04T16:05:00Z,27.2930,-90.9680,21.3,134.0,12.8,-9999.0,'11111222,11111222,99999999' 
ADCP,ioos:station:wmo:42377:1,2013-04-04T16:25:00Z,27.2930,-90.9680,21.3,118.0,14.8,-9999.0,'11111222,11111222,99999999' 
ADCP,ioos:station:wmo:42377:1,2013-04-04T16:45:00Z,27.2930,-90.9680,21.3,117.0,17.2,-9999.0,'11111222,11111222,99999999' 
ADCP,ioos:station:wmo:42377:1,2013-04-04T17:05:00Z,27.2930,-90.9680,21.3,102.0,23.1,-9999.0,'11111222,11111222,99999999' 
ADCP,ioos:station:wmo:42377:1,2013-04-04T17:25:00Z,27.2930,-90.9680,21.3,96.0,22.6,-9999.0,'11111222,11111222,99999999' 
ADCP,ioos:station:wmo:42377:1,2013-04-04T17:45:00Z,27.2930,-90.9680,21.3,88.0,27.3,-9999.0,'11111222,11111222,99999999' 
ADCP,ioos:station:wmo:42377:1,2013-04-04T18:05:00Z,27.2930,-90.9680,21.3,87.0,33.8,-9999.0,'11111222,11111222,99999999' 
ADCP,ioos:station:wmo:42377:1,2013-04-04T18:25:00Z,27.2930,-90.9680,21.3,74.0,38.2,-9999.0,'11111222,11111222,99999999' 
ADCP,ioos:station:wmo:42377:1,2013-04-04T18:45:00Z,27.2930,-90.9680,21.3,72.0,34.9,-9999.0,'11111222,11111222,99999999' 
ADCP,ioos:station:wmo:42377:1,2013-04-04T19:05:00Z,27.2930,-90.9680,21.3,75.0,33.2,-9999.0,'11111222,11111222,99999999' 
ADCP,ioos:station:wmo:42377:1,2013-04-04T19:25:00Z,27.2930,-90.9680,21.3,87.0,27.4,-9999.0,'11111222,11111222,99999999' 
ADCP,ioos:station:wmo:42377:1,2013-04-04T19:45:00Z,27.2930,-90.9680,21.3,83.0,26.1,-9999.0,'11111222,11111222,99999999' 
ADCP,ioos:station:wmo:42377:1,2013-04-04T20:05:00Z,27.2930,-90.9680,21.3,86.0,26.0,-9999.0,'11111222,11111222,99999999' 
ADCP,ioos:station:wmo:42377:1,2013-04-04T20:25:00Z,27.2930,-90.9680,21.3,81.0,22.5,-9999.0,'11111222,11111222,99999999' 
ADCP,ioos:station:wmo:42377:1,2013-04-04T20:45:00Z,27.2930,-90.9680,21.3,71.0,26.7,-9999.0,'11111222,11111222,99999999' 
ADCP,ioos:station:wmo:42377:1,2013-04-04T21:05:00Z,27.2930,-90.9680,21.3,68.0,31.5,-9999.0,'11111222,11111222,99999999' 
ADCP,ioos:station:wmo:42377:1,2013-04-04T21:25:00Z,27.2930,-90.9680,21.3,71.0,23.8,-9999.0,'11111222,11111222,99999999' 
ADCP,ioos:station:wmo:42377:1,2013-04-04T21:45:00Z,27.2930,-90.9680,21.3,78.0,27.1,-9999.0,'11111222,11111222,99999999' 
ADCP,ioos:station:wmo:42377:1,2013-04-04T22:05:00Z,27.2930,-90.9680,21.3,86.0,32.2,-9999.0,'11111222,11111222,99999999' 
ADCP,ioos:station:wmo:42377:1,2013-04-04T22:25:00Z,27.2930,-90.9680,21.3,81.0,26.8,-9999.0,'11111222,11111222,99999999' 
ADCP,ioos:station:wmo:42377:1,2013-04-04T22:45:00Z,27.2930,-90.9680,21.3,81.0,25.3,-9999.0,'11111222,11111222,99999999' 
ADCP,ioos:station:wmo:42377:1,2013-04-04T23:05:00Z,27.2930,-90.9680,21.3,83.0,31.5,-9999.0,'11111222,11111222,99999999' 
ADCP,ioos:station:wmo:42377:1,2013-04-04T23:25:00Z,27.2930,-90.9680,21.3,90.0,34.4,-9999.0,'11111222,11111222,99999999' 
ADCP,ioos:station:wmo:42377:1,2013-04-04T23:45:00Z,27.2930,-90.9680,21.3,81.0,33.4,-9999.0,'11111222,11111222,99999999' 
ADCP,ioos:station:wmo:42377:1,2013-04-05T00:05:00Z,27.2930,-90.9680,21.3,80.0,24.8,-9999.0,'11111222,11111222,99999999' 
ADCP,ioos:station:wmo:42377:1,2013-04-05T00:25:00Z,27.2930,-90.9680,21.3,82.0,28.6,-9999.0,'11111222,11111222,99999999' 
ADCP,ioos:station:wmo:42377:1,2013-04-05T00:45:00Z,27.2930,-90.9680,21.3,91.0,25.8,-9999.0,'11111222,11111222,99999999' 
ADCP,ioos:station:wmo:42377:1,2013-04-05T01:05:00Z,27.2930,-90.9680,21.3,91.0,33.3,-9999.0,'11111222,11111222,99999999' 
ADCP,ioos:station:wmo:42377:1,2013-04-05T01:25:00Z,27.2930,-90.9680,21.3,91.0,30.1,-9999.0,'11111222,11111222,99999999' 
ADCP,ioos:station:wmo:42377:1,2013-04-05T01:45:00Z,27.2930,-90.9680,21.3,109.0,33.3,-9999.0,'11111222,11111222,99999999' 
ADCP,ioos:station:wmo:42377:1,2013-04-05T02:05:00Z,27.2930,-90.9680,21.3,106.0,36.0,-9999.0,'11111222,11111222,99999999' 
ADCP,ioos:station:wmo:42377:1,2013-04-05T02:25:00Z,27.2930,-90.9680,21.3,128.0,29.3,-9999.0,'11111222,11111222,99999999' 
ADCP,ioos:station:wmo:42377:1,2013-04-05T02:45:00Z,27.2930,-90.9680,21.3,160.0,23.4,-9999.0,'11111222,11111222,99999999' 
ADCP,ioos:station:wmo:42377:1,2013-04-05T03:05:00Z,27.2930,-90.9680,21.3,153.0,23.0,-9999.0,'11111222,11111222,99999999' 
ADCP,ioos:station:wmo:42377:1,2013-04-05T03:25:00Z,27.2930,-90.9680,21.3,140.0,23.2,-9999.0,'11111222,11111222,99999999' 
ADCP,ioos:station:wmo:42377:1,2013-04-05T03:45:00Z,27.2930,-90.9680,21.3,137.0,25.9,-9999.0,'11111222,11111222,99999999' 
ADCP,ioos:station:wmo:42377:1,2013-04-05T04:05:00Z,27.2930,-90.9680,21.3,142.0,21.7,-9999.0,'11111222,11111222,99999999' 
ADCP,ioos:station:wmo:42377:1,2013-04-05T04:25:00Z,27.2930,-90.9680,21.3,175.0,21.5,-9999.0,'11111222,11111222,99999999' 
ADCP,ioos:station:wmo:42377:1,2013-04-05T04:45:00Z,27.2930,-90.9680,21.3,185.0,23.9,-9999.0,'11111222,11111222,99999999' 
ADCP,ioos:station:wmo:42377:1,2013-04-05T05:05:00Z,27.2930,-90.9680,21.3,190.0,21.0,-9999.0,'11111222,11111222,99999999' 
ADCP,ioos:station:wmo:42377:1,2013-04-05T05:25:00Z,27.2930,-90.9680,21.3,179.0,21.8,-9999.0,'11111222,11111222,99999999' 
ADCP,ioos:station:wmo:42377:1,2013-04-05T05:45:00Z,27.2930,-90.9680,21.3,190.0,21.7,-9999.0,'11111222,11111222,99999999' 
ADCP,ioos:station:wmo:42377:1,2013-04-05T06:05:00Z,27.2930,-90.9680,21.3,186.0,18.5,-9999.0,'11111222,11111222,99999999' 